{"data":{"norad_id":68969,"intl_designator":"2026-099U","name":"STARLINK-36303","alt_names":[],"object_type":"PAYLOAD","status":"ACTIVE","operator":null,"country":"US","launch_date":"2026-05-01","launch_site_code":"AFETR","launch_vehicle":null,"mission":null,"orbit_class":"UNKNOWN","rcs_meters":null,"size_class":null,"mass_kg":null,"dimensions":null,"purposes":["comms"],"wikipedia_slug":null,"has_3d_model":false,"image_url":null,"decayed_at":null,"tle_current":{"epoch":"2026-09-19T21:29:10.349088Z","epoch_age_seconds":71659,"freshness":"FRESH","line1":"1 68969U 26099U   26262.89525867  .00016832  00000+0  50810-3 0  9998","line2":"2 68969  53.1592  78.4527 0000917  73.8863 286.2241 15.34405078 21814","mean_motion":15.34405078,"eccentricity":9.17e-5,"inclination_deg":53.1592,"raan_deg":78.4527,"arg_perigee_deg":73.8863,"mean_anomaly_deg":286.2241,"bstar":0.0005081,"rev_number":2181,"period_min":93.847447499128,"perigee_km":462.06084369658,"apogee_km":463.3154510286,"semimajor_km":6840.8251473626,"source":"CELESTRAK","updated_at":"2026-09-20T09:00:44.055352Z"}}}